Probability
6 19 32 39 45 45 48 48 48 48 58 58 61 55 55 55 55 61 68 68 61 65 65 58 71 61 55 61 61 61 65 61 61 58 55 68 68 65 68 61 65 55 65
10 29 32 32 42 45 45 45 45 42 48 48 48 48 42 45 52 52 52 45 55 55 58 58 68 58 55 55 52 55 52 42 52 48 52 61 74 68 68 65 61 58 61
13 19 32 39 32 45 45 45 39 39 39 39 45 39 35 39 39 42 42 42 39 42 45 55 58 42 39 45 52 48 45 48 52 39 42 29 48 65 65 65 58 61 61
10 13 26 29 29 32 35 32 32 32 42 32 29 35 32 39 35 45 35 39 35 39 35 35 39 26 32 32 42 39 39 45 39 32 13 23 29 45 48 55 58 48 52
6 13 26 32 23 23 26 26 19 29 26 32 26 32 32 29 35 35 32 32 35 35 26 29 19 26 26 35 32 35 39 35 32 23 13 16 23 48 55 45 48 55 42
6 10 29 26 23 26 23 26 23 23 16 19 26 29 35 29 35 32 26 32 35 29 23 19 19 23 26 29 29 29 35 32 23 13 19 26 26 45 45 42 42 35 45
3 6 13 26 26 26 23 23 13 13 13 19 23 23 26 23 35 35 26 29 29 26 23 19 23 26 23 23 23 29 26 32 13 13 16 19 26 48 45 45 35 39 39
3 3 6 23 26 23 19 16 13 13 16 13 26 23 19 26 26 32 26 26 23 26 23 23 23 19 19 26 29 35 26 26 16 16 19 19 23 35 39 32 32 32 32
3 0 0 6 6 13 13 13 13 16 19 23 19 16 19 23 23 26 29 23 19 19 16 10 19 23 23 19 29 32 26 29 6 10 23 26 35 35 32 32 35 26 32
3 0 0 3 3 3 6 13 16 13 16 16 19 19 19 23 19 19 13 16 13 10 6 3 13 19 23 19 23 19 23 6 3 6 10 23 29 29 26 29 32 29 35
0 0 0 0 3 3 3 6 10 10 13 6 10 10 10 0 0 6 6 13 6 3 0 0 10 19 19 16 19 13 6 0 3 6 10 26 26 23 26 32 35 32 23
0 0 0 0 0 0 0 0 0 0 0 0 0 0 0 0 0 0 6 6 3 3 0 3 6 3 0 0 0 0 0 0 3 6 13 23 26 26 26 23 29 19 16
0 0 0 0 0 0 0 0 0 0 0 0 0 0 0 0 0 0 0 3 3 0 0 0 0 0 0 0 0 0 0 0 3 6 16 35 26 26 32 23 19 19 19
0 0 0 0 0 0 0 0 0 0 0 0 0 0 0 0 0 0 0 0 0 0 0 0 0 0 0 0 0 0 0 0 3 3 13 26 19 26 23 23 23 19 19
0 0 0 0 0 0 0 0 0 0 0 0 0 0 0 0 0 0 0 0 0 0 0 0 0 0 0 0 0 0 0 0 6 6 6 16 19 26 23 23 23 19 16
0 0 0 0 0 0 0 0 0 0 0 0 0 0 0 0 0 0 0 0 0 0 0 0 0 0 0 0 0 0 0 0 3 6 6 6 19 23 23 19 16 16 16
0 0 0 0 0 0 0 0 0 0 0 0 0 0 0 0 0 0 0 0 0 0 0 0 0 0 0 0 0 0 0 0 0 0 3 6 13 13 19 19 13 10 16
0 0 0 0 0 0 0 0 0 0 0 0 0 0 0 0 0 0 0 0 0 0 0 0 0 0 0 0 0 0 0 0 0 0 0 3 3 3 6 6 13 13 13
0 0 0 0 0 0 0 0 0 0 0 0 0 0 0 0 0 0 0 0 0 0 0 0 0 0 0 0 0 0 0 0 0 0 0 0 3 3 3 10 13 6 6
0 0 0 0 0 0 0 0 0 0 0 0 0 0 0 0 0 0 0 0 0 0 0 0 0 0 0 0 0 0 0 0 0 0 0 0 0 0 0 3 0 0 6
0 0 0 0 0 0 0 0 0 0 0 0 0 0 0 0 0 0 0 0 0 0 0 0 0 0 0 0 0 0 0 0 0 0 0 0 0 0 0 0 0 0 0
0 0 0 0 0 0 0 0 0 0 0 0 0 0 0 0 0 0 0 0 0 0 0 0 0 0 0 0 0 0 0 0 0 0 0 0 0 0 0 0 0 0 0
0 0 0 0 0 0 0 0 0 0 0 0 0 0 0 0 0 0 0 0 0 0 0 0 0 0 0 0 0 0 0 0 0 0 0 0 0 0 0 0 0 0 0
0 0 0 0 0 0 0 0 0 0 0 0 0 0 0 0 0 0 0 0 0 0 0 0 0 0 0 0 0 0 0 0 0 0 0 0 0 0 0 0 0 0 0
0 0 0 0 0 0 0 0 0 0 0 0 0 0 0 0 0 0 0 0 0 0 0 0 0 0 0 0 0 0 0 0 0 0 0 0 0 0 0 0 0 0 0
0 0 0 0 0 3 0 0 0 0 0 0 0 0 0 0 0 0 0 0 0 0 0 0 0 0 0 0 0 0 0 0 0 0 0 0 0 0 0 0 0 0 0
Height
5888 5887 5887 5886 5885 5885 5885 5884 5884 5884 5883 5883 5883 5883 5883 5883 5883 5883 5883 5883 5882 5883 5883 5883 5883 5883 5883 5883 5884 5884 5885 5885 5886 5887 5887 5888 5888 5888 5889 5889 5890 5890 5890
5887 5887 5886 5885 5885 5884 5884 5883 5883 5883 5882 5882 5882 5882 5882 5881 5881 5881 5881 5881 5881 5881 5881 5882 5882 5882 5882 5882 5882 5883 5883 5884 5885 5885 5886 5887 5887 5888 5888 5889 5889 5889 5889
5886 5886 5885 5884 5884 5883 5883 5882 5882 5881 5881 5881 5881 5881 5880 5880 5880 5880 5880 5880 5880 5880 5880 5880 5880 5880 5880 5880 5881 5881 5882 5882 5883 5884 5885 5885 5886 5886 5887 5887 5888 5888 5888
5885 5885 5884 5883 5883 5882 5881 5881 5880 5880 5880 5880 5880 5879 5879 5878 5878 5878 5878 5878 5878 5878 5878 5878 5878 5878 5878 5879 5879 5880 5880 5881 5882 5882 5883 5884 5885 5885 5886 5886 5887 5887 5887
5884 5883 5883 5882 5882 5881 5880 5879 5879 5879 5878 5878 5878 5878 5877 5877 5877 5876 5876 5876 5876 5876 5876 5876 5876 5876 5876 5877 5877 5878 5878 5879 5880 5881 5882 5883 5883 5884 5884 5885 5885 5886 5886
5883 5882 5882 5881 5880 5880 5879 5878 5877 5877 5877 5877 5876 5876 5876 5876 5875 5875 5875 5875 5874 5874 5874 5874 5874 5874 5874 5875 5875 5876 5876 5877 5878 5879 5880 5881 5882 5882 5883 5883 5884 5884 5885
5882 5881 5880 5880 5879 5878 5877 5877 5876 5876 5876 5875 5875 5875 5874 5874 5874 5874 5873 5873 5872 5872 5872 5872 5872 5872 5872 5873 5873 5873 5874 5875 5876 5877 5878 5879 5880 5880 5881 5882 5882 5883 5883
5881 5880 5879 5879 5878 5877 5876 5875 5875 5875 5874 5874 5874 5873 5873 5873 5872 5872 5871 5871 5871 5870 5870 5870 5870 5870 5870 5871 5871 5871 5872 5873 5874 5875 5876 5877 5878 5878 5879 5880 5880 5881 5881
5880 5879 5878 5878 5877 5876 5875 5874 5874 5874 5873 5873 5872 5872 5871 5871 5871 5870 5870 5869 5869 5869 5868 5868 5867 5868 5868 5869 5869 5869 5870 5871 5872 5873 5874 5875 5875 5876 5877 5878 5878 5879 5879
5878 5878 5877 5876 5876 5875 5874 5873 5873 5872 5872 5871 5871 5870 5870 5869 5869 5868 5868 5867 5867 5867 5867 5866 5866 5866 5866 5867 5867 5867 5868 5869 5870 5871 5872 5872 5873 5874 5875 5876 5876 5877 5877
5877 5877 5876 5875 5874 5874 5873 5872 5872 5871 5870 5870 5869 5868 5868 5867 5867 5867 5866 5866 5865 5865 5865 5864 5864 5864 5864 5865 5865 5866 5866 5867 5868 5869 5870 5870 5871 5872 5872 5873 5874 5875 5875
5877 5876 5875 5874 5873 5872 5872 5871 5870 5870 5869 5868 5867 5867 5866 5866 5865 5865 5865 5864 5864 5863 5863 5863 5863 5863 5863 5863 5864 5864 5865 5866 5866 5867 5868 5868 5869 5869 5870 5871 5872 5873 5873
5876 5875 5874 5873 5872 5871 5871 5870 5869 5868 5868 5867 5866 5866 5865 5864 5864 5864 5863 5863 5862 5862 5862 5862 5861 5862 5862 5862 5863 5863 5864 5864 5865 5865 5866 5866 5867 5868 5868 5869 5870 5870 5871
5874 5873 5872 5871 5870 5870 5869 5869 5868 5867 5866 5866 5865 5865 5864 5863 5863 5862 5862 5862 5861 5861 5861 5861 5861 5861 5861 5861 5862 5862 5862 5863 5863 5864 5864 5865 5865 5866 5866 5867 5867 5868 5868
5873 5872 5871 5870 5869 5869 5868 5868 5867 5866 5866 5865 5865 5864 5863 5863 5862 5862 5861 5861 5860 5860 5860 5860 5860 5860 5860 5860 5860 5861 5861 5861 5862 5862 5863 5863 5863 5864 5864 5865 5865 5866 5866
5871 5871 5870 5869 5868 5868 5867 5867 5866 5866 5865 5864 5864 5863 5862 5862 5861 5861 5860 5860 5859 5859 5859 5859 5859 5859 5859 5859 5860 5860 5860 5860 5860 5861 5861 5861 5862 5862 5863 5863 5864 5864 5864
5870 5869 5869 5868 5867 5867 5866 5866 5866 5865 5865 5864 5863 5863 5862 5861 5860 5860 5859 5859 5859 5859 5859 5859 5859 5859 5859 5859 5860 5860 5860 5859 5859 5860 5860 5860 5860 5861 5861 5862 5862 5862 5862
5868 5868 5867 5867 5866 5866 5866 5865 5865 5864 5864 5863 5863 5862 5861 5860 5860 5859 5859 5858 5858 5858 5858 5858 5859 5859 5859 5859 5859 5859 5859 5859 5859 5859 5859 5859 5859 5860 5860 5860 5860 5860 5860
5867 5866 5866 5866 5865 5865 5864 5864 5864 5864 5863 5863 5862 5861 5860 5859 5859 5858 5858 5858 5858 5858 5858 5858 5858 5859 5859 5859 5859 5859 5859 5859 5859 5858 5858 5858 5859 5859 5859 5859 5859 5859 5859
5865 5865 5865 5865 5864 5864 5864 5863 5863 5863 5863 5862 5861 5860 5859 5859 5858 5858 5857 5857 5857 5857 5858 5858 5858 5858 5859 5859 5859 5859 5858 5858 5858 5858 5858 5858 5858 5858 5858 5858 5858 5858 5857
5864 5864 5863 5863 5863 5863 5863 5863 5862 5862 5862 5861 5860 5859 5859 5858 5857 5857 5857 5857 5857 5857 5857 5857 5858 5858 5858 5858 5858 5858 5858 5858 5858 5858 5858 5858 5857 5857 5857 5857 5857 5857 5856
5864 5863 5863 5863 5863 5862 5862 5862 5861 5861 5861 5860 5859 5859 5858 5858 5857 5857 5857 5857 5857 5857 5857 5857 5857 5857 5858 5858 5858 5858 5858 5859 5858 5858 5858 5857 5857 5857 5857 5856 5856 5856 5855
5863 5862 5862 5862 5862 5862 5861 5861 5860 5860 5860 5859 5859 5858 5858 5857 5857 5856 5857 5857 5857 5857 5857 5857 5857 5857 5857 5858 5858 5858 5858 5858 5858 5857 5857 5857 5857 5856 5856 5855 5855 5855 5854
5862 5861 5861 5861 5861 5860 5860 5859 5859 5859 5859 5858 5858 5858 5857 5857 5856 5856 5856 5856 5856 5857 5857 5857 5857 5857 5857 5857 5857 5858 5858 5857 5857 5857 5857 5856 5856 5856 5855 5855 5854 5853 5853
5860 5860 5860 5860 5860 5859 5859 5859 5858 5858 5858 5858 5857 5857 5857 5856 5856 5856 5856 5856 5856 5856 5857 5857 5857 5857 5857 5857 5857 5857 5857 5857 5857 5857 5856 5856 5855 5855 5854 5853 5853 5852 5852
5859 5859 5859 5859 5858 5858 5858 5858 5857 5857 5857 5857 5856 5856 5856 5856 5856 5855 5855 5855 5855 5856 5856 5856 5856 5856 5856 5856 5856 5856 5856 5856 5856 5856 5855 5855 5854 5854 5853 5852 5852 5851 5850
Wind_Speed
4 4 4 4 4 5 6 6 6 6 5 5 6 6 6 6 6 7 7 7 7 6 7 8 8 8 8 8 9 9 10 9 10 9 9 8 8 8 7 6 5 5 5
4 4 5 5 5 6 6 6 6 6 6 5 6 6 7 7 7 8 8 8 8 8 8 9 9 9 9 9 9 9 10 10 10 10 10 9 8 8 7 7 6 6 6
4 5 6 6 6 7 7 7 6 6 6 6 6 6 7 7 7 8 9 9 9 9 9 10 10 10 10 10 10 10 10 10 10 10 10 10 9 8 7 7 7 6 7
6 6 5 6 6 7 8 7 7 7 7 6 7 7 7 7 7 8 9 9 9 10 10 10 11 10 10 10 10 10 11 11 11 11 11 10 9 9 8 8 7 7 7
6 6 5 6 7 7 7 8 7 7 6 7 7 7 7 7 6 7 8 8 9 9 9 10 10 10 10 10 10 11 11 11 11 11 11 10 10 9 9 9 8 8 8
6 6 6 7 7 7 7 7 7 6 5 5 6 6 6 6 6 7 7 8 8 8 9 9 10 10 10 10 10 10 12 12 12 11 11 11 11 10 10 10 9 8 8
7 7 6 6 6 6 7 6 5 4 5 5 5 5 6 6 6 7 7 6 7 8 8 9 9 9 9 9 9 10 11 12 12 11 11 11 11 11 10 10 10 9 9
7 7 6 7 6 7 6 5 4 5 4 5 5 5 5 6 6 6 7 6 6 7 8 8 9 9 9 9 9 10 11 11 11 11 11 11 11 11 11 11 10 10 10
7 7 6 6 6 5 5 5 5 5 4 5 5 5 6 6 6 5 6 6 5 6 7 8 8 8 8 9 9 10 10 10 11 11 11 11 12 11 11 11 11 11 11
7 6 5 5 5 5 5 5 5 5 5 5 5 5 5 5 5 5 6 5 5 5 6 7 7 7 7 7 7 8 8 9 10 10 11 11 11 11 11 11 11 11 11
7 6 5 5 5 5 5 5 5 5 4 5 5 4 5 5 5 5 5 5 5 5 5 5 6 7 7 7 7 7 7 8 9 10 10 11 11 11 11 11 11 11 11
7 6 5 5 5 5 5 5 5 4 4 4 4 4 4 4 4 4 4 4 4 4 4 4 6 6 6 6 7 7 7 8 8 9 10 10 10 10 11 11 11 11 11
6 6 6 5 4 4 4 4 4 4 4 3 3 3 3 3 3 4 3 4 4 3 4 4 5 5 5 5 6 6 6 7 8 9 9 9 10 10 10 11 11 11 11
6 6 6 5 4 3 4 3 3 4 3 3 2 3 3 2 2 2 3 3 3 3 3 4 4 5 5 5 5 6 6 6 7 8 9 9 9 9 9 9 10 10 10
7 7 5 4 3 3 3 3 3 3 3 2 2 2 2 2 2 2 2 2 2 3 3 4 3 3 4 4 4 4 4 5 6 7 7 8 8 8 8 8 9 9 9
7 6 5 4 3 2 3 3 2 2 2 2 3 3 3 2 2 2 2 1 2 2 3 3 2 2 3 3 3 3 3 3 4 5 5 6 7 7 8 8 8 9 9
7 6 5 4 3 2 3 3 2 2 2 2 3 3 3 3 3 2 2 2 1 2 3 2 2 2 2 2 2 1 2 2 3 3 4 4 6 7 7 7 7 8 7
6 6 5 4 3 2 2 2 2 2 2 2 2 3 3 2 2 1 1 2 2 2 2 2 1 1 1 2 1 1 1 2 3 3 3 3 4 5 5 6 7 6 6
6 5 4 4 3 2 2 2 2 2 2 2 2 3 2 2 1 1 1 1 2 3 3 2 2 1 1 1 1 1 1 1 2 2 3 3 3 4 4 4 5 5 6
5 4 4 3 3 2 2 2 2 2 1 2 2 2 2 1 1 1 1 1 2 3 3 2 2 1 1 1 1 1 1 1 1 2 2 2 3 3 4 4 5 4 4
4 4 4 3 2 2 3 3 2 2 2 2 2 2 2 1 0 0 1 1 2 3 3 2 2 2 1 1 1 1 1 2 1 1 1 1 2 2 3 4 4 4 4
4 4 3 3 2 3 3 3 3 2 2 2 2 2 2 1 0 0 1 2 2 2 2 2 2 2 2 1 1 1 1 1 1 1 1 1 2 3 3 4 5 5 5
5 4 4 3 3 3 4 4 3 2 2 2 2 2 1 1 0 1 1 2 2 2 2 2 1 2 2 2 1 1 1 1 2 2 2 2 3 3 4 5 5 6 6
5 4 4 4 4 4 4 4 3 3 3 2 2 1 1 1 0 1 1 1 2 2 2 2 1 2 2 2 1 1 1 1 2 2 3 3 4 4 5 5 5 6 6
4 5 5 4 4 4 4 4 4 4 3 3 2 2 1 1 1 1 1 2 2 2 2 2 2 1 1 1 2 2 2 2 2 3 3 4 4 5 5 5 6 6 6
5 5 5 5 5 5 5 5 5 4 4 3 3 2 1 1 1 2 1 2 2 2 2 2 2 1 1 1 2 2 2 3 3 4 4 5 5 5 6 6 6 6 7
Wind_Direction
312 313 319 317 313 307 310 307 302 303 295 284 278 271 271 270 257 245 238 238 236 238 239 242 244 243 239 235 232 231 228 225 220 220 220 221 224 221 219 221 225 223 227
307 308 306 308 307 307 300 298 301 302 297 285 280 279 276 277 271 252 243 241 242 244 243 243 243 241 239 236 233 232 230 228 226 224 224 226 227 227 226 227 229 232 231
308 309 305 307 309 312 309 297 298 294 290 281 279 280 279 281 276 262 250 247 244 244 246 247 245 244 241 239 237 233 230 229 229 228 226 228 230 232 232 232 235 234 231
312 309 302 306 308 308 308 298 293 293 282 274 276 277 280 281 274 261 257 253 247 245 247 245 244 245 245 242 238 234 232 230 232 230 230 229 231 233 234 238 238 237 235
309 309 303 304 306 304 303 301 294 288 282 274 274 277 277 277 271 260 254 252 250 248 248 244 245 247 246 242 238 234 232 230 231 229 230 230 232 235 237 240 241 241 239
313 310 307 306 308 307 303 299 297 289 284 282 278 277 275 277 277 264 256 253 252 253 253 248 249 247 248 244 240 236 233 232 229 230 231 231 232 235 237 239 241 242 241
316 317 311 311 314 314 312 306 296 288 287 284 284 278 273 274 276 269 262 261 258 257 255 253 254 248 247 245 243 241 236 232 227 228 229 232 234 235 237 239 241 243 242
319 318 315 319 319 315 314 308 305 298 291 286 287 286 275 268 270 272 265 264 261 260 258 256 255 252 245 246 245 242 239 233 228 227 230 232 235 237 237 241 244 245 246
319 317 317 320 324 325 324 318 312 302 298 290 284 282 274 264 268 273 269 267 261 262 259 258 251 250 244 244 244 242 239 234 227 227 231 233 235 238 239 241 244 248 250
318 317 313 312 318 327 321 315 311 301 298 295 287 283 273 264 262 262 260 260 255 259 262 255 249 246 243 241 239 237 234 232 227 226 229 233 237 241 240 241 244 247 250
321 318 312 312 315 316 313 312 310 306 298 297 294 291 283 269 262 259 251 257 258 260 259 246 245 244 239 234 235 237 235 231 228 226 230 236 238 238 237 239 242 247 249
315 308 304 305 306 310 312 313 313 312 309 308 303 295 289 275 263 259 251 253 255 256 250 235 230 228 228 231 231 234 234 232 229 230 233 238 239 237 236 238 243 248 251
314 308 299 300 300 306 310 312 316 318 319 319 316 306 298 283 267 264 254 250 249 243 231 225 223 218 223 226 226 230 232 231 231 233 236 238 238 236 240 243 244 249 252
317 311 304 300 304 314 314 317 324 325 327 331 326 316 307 302 273 281 275 253 245 242 229 220 220 216 222 221 224 230 234 238 236 233 237 240 238 237 242 243 244 249 252
313 309 308 304 307 311 316 322 328 335 338 341 327 324 328 317 293 295 283 257 247 243 234 223 220 210 221 221 223 224 234 237 230 232 235 235 239 242 244 245 246 249 253
309 309 314 309 307 316 329 332 339 349 354 350 339 347 340 318 299 291 275 266 246 235 229 218 214 199 201 204 197 209 225 227 225 228 230 237 238 240 245 248 248 249 251
309 305 306 312 310 317 320 321 329 334 331 338 343 341 333 319 305 284 261 236 228 205 206 202 216 197 197 190 170 190 218 229 225 217 224 231 236 241 247 246 249 254 255
305 302 301 308 310 308 308 298 304 310 312 316 333 335 330 323 314 296 245 219 208 183 189 188 195 179 172 191 186 216 215 216 223 226 228 230 233 241 245 246 251 257 254
308 303 290 297 298 290 296 296 298 304 304 309 325 327 329 324 306 294 238 217 191 176 167 158 157 155 160 187 205 238 250 213 230 241 243 234 233 231 240 247 254 263 260
310 307 291 293 289 276 280 288 291 297 311 314 329 326 324 322 313 268 230 204 180 171 166 170 164 163 161 196 206 224 259 233 239 244 244 230 226 220 228 240 249 262 261
311 308 292 285 280 271 274 274 281 301 316 317 331 330 326 330 344 190 165 166 165 174 173 179 172 169 166 174 198 210 223 222 236 243 269 246 223 224 235 253 261 268 271
306 308 294 287 274 268 273 273 271 290 308 315 329 336 324 333 7 138 141 170 173 166 163 160 164 177 185 180 183 203 213 216 222 258 280 277 256 249 263 272 274 277 282
297 296 284 289 279 265 264 274 274 281 294 307 312 328 340 354 132 160 161 176 169 164 164 154 150 173 176 173 184 196 210 221 237 258 271 278 267 266 272 280 284 280 280
282 283 280 284 281 273 267 270 263 269 281 290 301 311 325 352 205 174 166 171 173 173 171 168 147 142 166 186 207 235 269 268 241 254 272 272 273 278 281 284 285 287 285
275 275 278 278 273 268 262 256 257 260 265 266 279 295 299 274 220 189 169 173 172 177 181 179 172 172 188 208 240 261 273 283 277 285 291 283 282 282 284 287 289 291 288
268 270 272 271 272 268 260 255 256 261 264 263 259 255 255 241 206 183 159 156 173 190 193 191 189 210 230 238 252 257 267 280 284 288 290 292 292 288 286 285 289 289 290